time, Switch, Flow(0), Analog(2)
yyyy/mm/dd HH:MM:SS.fff, True=FILTERED|False=TOTAL, L/min, V
2023/07/01 03:00:01.330, True, 4.319, 0.134203
2023/07/01 03:00:01.834, True, 4.633, 0.132372
2023/07/01 03:00:02.339, True, 4.311, 0.130617
2023/07/01 03:00:02.834, True, 4.380, 0.132906
2023/07/01 03:00:03.339, True, 3.979, 0.134051
2023/07/01 03:00:03.835, True, 3.709, 0.134966
2023/07/01 03:00:04.339, True, 2.651, 0.131304
2023/07/01 03:00:04.843, True, 1.326, 0.131991
2023/07/01 03:00:05.339, True, 1.011, 0.134356
2023/07/01 03:00:05.843, True, 0.995, 0.131380
2023/07/01 03:00:06.347, True, 1.326, 0.132219
2023/07/01 03:00:06.843, True, 1.012, 0.132372
2023/07/01 03:00:07.346, True, 0.994, 0.131991
2023/07/01 03:00:07.851, True, 0.995, 0.133898
2023/07/01 03:00:08.347, True, 0.674, 0.133135
2023/07/01 03:00:08.851, True, 1.326, 0.133211
2023/07/01 03:00:09.355, True, 0.995, 0.131838
2023/07/01 03:00:09.851, True, 1.011, 0.132677
2023/07/01 03:00:10.355, True, 0.995, 0.133974
2023/07/01 03:00:10.859, True, 0.994, 0.133440
2023/07/01 03:00:11.363, True, 0.995, 0.131762
2023/07/01 03:00:11.859, True, 1.011, 0.133593
2023/07/01 03:00:12.363, True, 0.995, 0.131456
2023/07/01 03:00:12.859, True, 1.011, 0.133516
2023/07/01 03:00:13.362, True, 0.663, 0.132067
2023/07/01 03:00:13.867, True, 0.995, 0.132753
2023/07/01 03:00:14.363, True, 1.348, 0.132830
2023/07/01 03:00:14.867, True, 0.995, 0.129931
2023/07/01 03:00:15.363, True, 1.011, 0.132982
2023/07/01 03:00:15.867, True, 0.995, 0.131609
2023/07/01 03:00:16.371, True, 0.995, 0.132448
2023/07/01 03:00:16.867, True, 1.012, 0.133211
2023/07/01 03:00:17.371, True, 0.993, 0.132067
2023/07/01 03:00:17.875, True, 1.326, 0.132677
2023/07/01 03:00:18.371, True, 1.011, 0.130541
2023/07/01 03:00:18.875, True, 0.663, 0.132906
2023/07/01 03:00:19.379, True, 1.326, 0.133822
2023/07/01 03:00:19.875, True, 1.011, 0.135195
2023/07/01 03:00:20.379, True, 0.995, 0.132219
2023/07/01 03:00:20.883, True, 0.995, 0.133059
2023/07/01 03:00:21.387, True, 0.995, 0.132525
2023/07/01 03:00:21.883, True, 1.011, 0.133822
2023/07/01 03:00:22.387, True, 0.995, 0.133516
2023/07/01 03:00:22.891, True, 0.995, 0.134127
2023/07/01 03:00:23.387, True, 1.348, 0.134966
2023/07/01 03:00:23.891, True, 0.663, 0.132219
2023/07/01 03:00:24.395, True, 0.996, 0.132143
2023/07/01 03:00:24.891, True, 1.011, 0.134051
2023/07/01 03:00:25.395, True, 0.994, 0.133288
2023/07/01 03:00:25.891, True, 1.011, 0.131685
2023/07/01 03:00:26.395, True, 0.995, 0.131991
2023/07/01 03:00:26.899, True, 0.995, 0.133440
2023/07/01 03:00:27.395, True, 1.348, 0.134966
2023/07/01 03:00:27.899, True, 0.995, 0.132296
2023/07/01 03:00:28.403, True, 0.995, 0.132677
2023/07/01 03:00:28.907, True, 0.995, 0.130999
2023/07/01 03:00:29.403, True, 1.011, 0.132677
2023/07/01 03:00:29.907, True, 0.995, 0.132677
2023/07/01 03:00:30.411, True, 0.995, 0.133211
2023/07/01 03:00:30.907, True, 1.011, 0.131533
2023/07/01 03:00:31.411, True, 0.995, 0.132448
2023/07/01 03:00:31.915, True, 0.995, 0.132982
2023/07/01 03:00:32.411, True, 1.011, 0.132906
2023/07/01 03:00:32.915, True, 0.995, 0.133593
2023/07/01 03:00:33.419, True, 0.995, 0.133516
2023/07/01 03:00:33.915, True, 1.011, 0.133669
2023/07/01 03:00:34.419, True, 0.995, 0.132296
2023/07/01 03:00:34.923, True, 0.995, 0.132296
2023/07/01 03:00:35.427, True, 0.995, 0.132448
2023/07/01 03:00:35.923, True, 1.011, 0.130236
2023/07/01 03:00:36.427, True, 0.994, 0.133211
2023/07/01 03:00:36.931, True, 0.995, 0.133059
2023/07/01 03:00:37.427, True, 1.010, 0.131914
2023/07/01 03:00:37.930, True, 0.995, 0.132448
2023/07/01 03:00:38.435, True, 0.995, 0.132525
2023/07/01 03:00:38.931, True, 1.011, 0.132525
2023/07/01 03:00:39.434, True, 0.994, 0.132830
2023/07/01 03:00:39.939, True, 0.996, 0.129397
2023/07/01 03:00:40.435, True, 1.010, 0.132143
2023/07/01 03:00:40.938, True, 0.995, 0.133364
2023/07/01 03:00:41.434, True, 1.011, 0.132906
2023/07/01 03:00:41.939, True, 0.995, 0.131075
2023/07/01 03:00:42.443, True, 1.326, 0.132677
2023/07/01 03:00:42.938, True, 1.011, 0.132830
2023/07/01 03:00:43.443, True, 0.995, 0.134127
2023/07/01 03:00:43.946, True, 0.995, 0.133364
2023/07/01 03:00:44.442, True, 1.011, 0.133516
2023/07/01 03:00:44.947, True, 0.996, 0.131685
2023/07/01 03:00:45.443, True, 1.010, 0.131304
2023/07/01 03:00:45.947, True, 0.995, 0.130922
2023/07/01 03:00:46.451, True, 0.996, 0.132601
2023/07/01 03:00:46.947, True, 1.010, 0.133135
2023/07/01 03:00:47.451, True, 0.994, 0.132601
2023/07/01 03:00:47.955, True, 0.996, 0.132525
2023/07/01 03:00:48.451, True, 1.010, 0.130922
2023/07/01 03:00:48.955, True, 0.995, 0.132677
2023/07/01 03:00:49.459, True, 0.995, 0.133669
2023/07/01 03:00:49.954, True, 1.011, 0.134813
2023/07/01 03:00:50.459, True, 0.995, 0.134127
2023/07/01 03:00:50.962, True, 0.995, 0.132296
2023/07/01 03:00:51.458, True, 1.011, 0.131380
2023/07/01 03:00:51.963, True, 0.995, 0.131762
2023/07/01 03:00:52.459, True, 1.010, 0.132372
2023/07/01 03:00:52.963, True, 0.995, 0.133516
2023/07/01 03:00:53.467, True, 0.995, 0.133211
2023/07/01 03:00:53.963, True, 1.011, 0.131991
2023/07/01 03:00:54.467, True, 0.995, 0.131380
2023/07/01 03:00:54.971, True, 0.995, 0.131456
2023/07/01 03:00:55.467, True, 1.011, 0.134356
2023/07/01 03:00:55.970, True, 0.995, 0.133822
2023/07/01 03:00:56.475, True, 0.995, 0.133440
2023/07/01 03:00:56.971, True, 1.011, 0.132753
2023/07/01 03:00:57.475, True, 0.995, 0.131991
2023/07/01 03:00:57.979, True, 0.663, 0.132830
2023/07/01 03:00:58.475, True, 1.348, 0.133669
2023/07/01 03:00:58.979, True, 0.664, 0.134127
2023/07/01 03:00:59.483, True, 1.325, 0.132448
2023/07/01 03:00:59.979, True, 1.011, 0.134966
2023/07/01 03:01:00.482, True, 0.995, 0.134203
2023/07/01 03:01:00.986, True, 0.996, 0.136645
2023/07/01 03:01:01.483, True, 1.010, 0.132677
2023/07/01 03:01:01.987, True, 0.996, 0.131380
2023/07/01 03:01:02.491, True, 0.994, 0.134813
2023/07/01 03:01:02.987, True, 1.011, 0.134051
2023/07/01 03:01:03.491, True, 0.995, 0.135195
2023/07/01 03:01:03.995, True, 0.995, 0.134661
2023/07/01 03:01:04.491, True, 1.011, 0.133135
2023/07/01 03:01:04.995, True, 0.995, 0.133593
2023/07/01 03:01:05.499, True, 0.995, 0.136034
2023/07/01 03:01:05.995, True, 1.348, 0.133364
2023/07/01 03:01:06.499, True, 0.995, 0.135424
2023/07/01 03:01:06.995, True, 1.011, 0.137026
2023/07/01 03:01:07.499, True, 0.995, 0.134279
2023/07/01 03:01:08.003, True, 0.996, 0.133974
2023/07/01 03:01:08.499, True, 1.010, 0.132372
2023/07/01 03:01:09.003, True, 0.995, 0.136339
2023/07/01 03:01:09.507, True, 0.995, 0.138170
2023/07/01 03:01:10.003, True, 1.011, 0.136950
2023/07/01 03:01:10.507, True, 1.326, 0.136187
2023/07/01 03:01:11.011, True, 0.995, 0.138323
2023/07/01 03:01:11.507, True, 1.011, 0.135500
2023/07/01 03:01:12.011, True, 0.995, 0.135805
2023/07/01 03:01:12.515, True, 0.663, 0.135653
2023/07/01 03:01:13.011, True, 1.011, 0.135805
2023/07/01 03:01:13.515, True, 0.995, 0.137102
2023/07/01 03:01:14.019, True, 0.995, 0.136339
2023/07/01 03:01:14.515, True, 1.348, 0.138476
2023/07/01 03:01:15.019, True, 0.995, 0.138094
2023/07/01 03:01:15.523, True, 0.994, 0.136645
2023/07/01 03:01:16.019, True, 1.011, 0.139010
2023/07/01 03:01:16.523, True, 0.995, 0.137179
2023/07/01 03:01:17.027, True, 0.995, 0.139239
2023/07/01 03:01:17.523, True, 1.011, 0.137942
2023/07/01 03:01:18.027, True, 0.995, 0.138399
2023/07/01 03:01:18.523, True, 1.011, 0.137636
2023/07/01 03:01:19.027, True, 0.995, 0.140917
2023/07/01 03:01:19.530, True, 0.995, 0.138399
2023/07/01 03:01:20.027, True, 1.011, 0.138781
2023/07/01 03:01:20.531, True, 0.663, 0.135729
2023/07/01 03:01:21.034, True, 0.995, 0.140612
2023/07/01 03:01:21.530, True, 1.011, 0.140230
2023/07/01 03:01:22.035, True, 0.996, 0.137255
2023/07/01 03:01:22.538, True, 1.325, 0.138552
2023/07/01 03:01:23.035, True, 1.011, 0.138476
2023/07/01 03:01:23.539, True, 0.995, 0.137636
2023/07/01 03:01:24.043, True, 0.995, 0.140764
2023/07/01 03:01:24.539, True, 1.011, 0.139162
2023/07/01 03:01:25.043, True, 0.995, 0.139162
2023/07/01 03:01:25.547, True, 0.995, 0.138399
2023/07/01 03:01:26.043, True, 0.674, 0.136950
2023/07/01 03:01:26.547, True, 0.995, 0.138857
2023/07/01 03:01:27.051, True, 0.995, 0.137560
2023/07/01 03:01:27.547, True, 1.011, 0.140383
2023/07/01 03:01:28.051, True, 0.995, 0.137789
2023/07/01 03:01:28.547, True, 1.011, 0.139086
2023/07/01 03:01:29.051, True, 0.995, 0.138094
2023/07/01 03:01:29.555, True, 0.996, 0.139162
2023/07/01 03:01:30.050, True, 1.010, 0.138781
2023/07/01 03:01:30.554, True, 0.995, 0.139086
2023/07/01 03:01:31.059, True, 0.996, 0.142672
2023/07/01 03:01:31.555, True, 1.010, 0.138247
2023/07/01 03:01:32.059, True, 0.995, 0.140688
2023/07/01 03:01:32.562, True, 0.996, 0.138857
2023/07/01 03:01:33.059, True, 1.011, 0.139696
2023/07/01 03:01:33.563, True, 0.994, 0.140154
2023/07/01 03:01:34.067, True, 0.996, 0.138399
2023/07/01 03:01:34.562, True, 1.011, 0.141375
2023/07/01 03:01:35.067, True, 0.995, 0.140841
2023/07/01 03:01:35.571, True, 1.325, 0.139773
2023/07/01 03:01:36.067, True, 1.013, 0.136873
2023/07/01 03:01:36.571, True, 0.994, 0.141680
2023/07/01 03:01:37.075, True, 0.995, 0.140154
2023/07/01 03:01:37.571, True, 1.010, 0.137560
2023/07/01 03:01:38.075, True, 0.997, 0.138018
2023/07/01 03:01:38.579, True, 0.994, 0.140993
2023/07/01 03:01:39.074, True, 1.012, 0.140459
2023/07/01 03:01:39.579, True, 0.995, 0.139315
2023/07/01 03:01:40.083, True, 1.324, 0.138323
2023/07/01 03:01:40.587, True, 0.995, 0.139925
2023/07/01 03:01:41.083, True, 1.013, 0.137789
2023/07/01 03:01:41.587, True, 0.993, 0.140078
2023/07/01 03:01:42.091, True, 0.995, 0.138399
2023/07/01 03:01:42.587, True, 1.011, 0.137789
2023/07/01 03:01:43.091, True, 0.995, 0.140917
2023/07/01 03:01:43.595, True, 0.995, 0.139696
2023/07/01 03:01:44.091, True, 0.674, 0.142214
2023/07/01 03:01:44.595, True, 1.326, 0.139162
2023/07/01 03:01:45.098, True, 0.995, 0.142596
2023/07/01 03:01:45.595, True, 1.011, 0.139620
2023/07/01 03:01:46.098, True, 0.997, 0.139620
2023/07/01 03:01:46.603, True, 0.993, 0.140002
2023/07/01 03:01:47.099, True, 1.011, 0.141833
2023/07/01 03:01:47.603, True, 0.995, 0.141146
2023/07/01 03:01:48.107, True, 0.995, 0.143816
2023/07/01 03:01:48.603, True, 1.011, 0.137942
2023/07/01 03:01:49.106, True, 1.326, 0.138628
2023/07/01 03:01:49.611, True, 0.995, 0.141146
2023/07/01 03:01:50.107, True, 1.011, 0.142138
2023/07/01 03:01:50.611, True, 0.996, 0.140612
2023/07/01 03:01:51.114, True, 0.993, 0.138323
2023/07/01 03:01:51.611, True, 1.013, 0.139544
2023/07/01 03:01:52.115, True, 0.993, 0.140230
2023/07/01 03:01:52.619, True, 0.995, 0.140764
2023/07/01 03:01:53.115, True, 1.011, 0.142748
2023/07/01 03:01:53.619, True, 0.996, 0.141909
2023/07/01 03:01:54.115, True, 1.010, 0.140307
2023/07/01 03:01:54.619, True, 0.995, 0.140459
2023/07/01 03:01:55.123, True, 1.327, 0.140078
2023/07/01 03:01:55.619, True, 0.674, 0.140917
2023/07/01 03:01:56.123, True, 1.326, 0.140459
2023/07/01 03:01:56.627, True, 0.663, 0.139849
2023/07/01 03:01:57.123, True, 1.011, 0.139925
2023/07/01 03:01:57.627, True, 1.326, 0.139925
2023/07/01 03:01:58.131, True, 0.996, 0.138247
2023/07/01 03:01:58.627, True, 1.009, 0.139544
2023/07/01 03:01:59.131, True, 0.996, 0.140002
2023/07/01 03:01:59.635, True, 0.993, 0.139544
2023/07/01 03:02:00.131, True, 1.011, 0.139467
2023/07/01 03:02:00.635, True, 0.995, 0.142061
2023/07/01 03:02:01.139, True, 0.995, 0.140536
2023/07/01 03:02:01.635, True, 1.011, 0.142672
2023/07/01 03:02:02.139, True, 0.995, 0.138170
2023/07/01 03:02:02.643, True, 0.996, 0.140002
2023/07/01 03:02:03.139, True, 1.009, 0.141299
2023/07/01 03:02:03.643, True, 0.995, 0.142519
2023/07/01 03:02:04.147, True, 0.995, 0.139467
2023/07/01 03:02:04.643, True, 1.011, 0.139849
2023/07/01 03:02:05.147, True, 0.995, 0.141070
2023/07/01 03:02:05.643, True, 1.013, 0.139696
2023/07/01 03:02:06.147, True, 0.993, 0.139849
2023/07/01 03:02:06.651, True, 0.663, 0.140002
2023/07/01 03:02:07.146, True, 1.011, 0.140688
2023/07/01 03:02:07.651, True, 1.326, 0.138705
2023/07/01 03:02:08.155, True, 0.995, 0.139239
2023/07/01 03:02:08.651, True, 0.674, 0.140383
2023/07/01 03:02:09.155, True, 0.995, 0.139086
2023/07/01 03:02:09.659, True, 1.326, 0.140993
2023/07/01 03:02:10.155, True, 1.011, 0.139849
2023/07/01 03:02:10.659, True, 0.995, 0.139696
2023/07/01 03:02:11.163, True, 0.995, 0.143359
2023/07/01 03:02:11.658, True, 1.011, 0.140002
2023/07/01 03:02:12.163, True, 0.995, 0.139239
2023/07/01 03:02:12.667, True, 0.995, 0.140612
2023/07/01 03:02:13.163, True, 1.010, 0.141222
2023/07/01 03:02:13.667, True, 0.995, 0.141146
2023/07/01 03:02:14.171, True, 0.995, 0.139010
2023/07/01 03:02:14.675, True, 0.995, 0.140002
2023/07/01 03:02:15.171, True, 1.011, 0.139696
2023/07/01 03:02:15.675, True, 0.995, 0.139773
2023/07/01 03:02:16.171, True, 1.011, 0.140230
2023/07/01 03:02:16.675, True, 0.995, 0.140078
2023/07/01 03:02:17.179, True, 0.995, 0.140536
2023/07/01 03:02:17.675, True, 1.011, 0.138323
2023/07/01 03:02:18.179, True, 0.995, 0.142443
2023/07/01 03:02:18.683, True, 0.995, 0.139162
2023/07/01 03:02:19.179, True, 1.011, 0.139925
2023/07/01 03:02:19.682, True, 0.994, 0.140230
2023/07/01 03:02:20.187, True, 0.995, 0.141985
2023/07/01 03:02:20.683, True, 1.011, 0.138628
2023/07/01 03:02:21.187, True, 0.995, 0.140612
2023/07/01 03:02:21.691, True, 0.995, 0.139620
2023/07/01 03:02:22.186, True, 1.011, 0.139696
2023/07/01 03:02:22.691, True, 0.995, 0.142061
2023/07/01 03:02:23.187, True, 1.013, 0.140307
2023/07/01 03:02:23.691, True, 1.324, 0.139544
2023/07/01 03:02:24.195, True, 0.995, 0.139315
2023/07/01 03:02:24.699, True, 0.995, 0.138247
2023/07/01 03:02:25.195, True, 1.011, 0.139925
2023/07/01 03:02:25.699, True, 0.995, 0.138857
2023/07/01 03:02:26.195, True, 1.011, 0.139773
2023/07/01 03:02:26.699, True, 0.995, 0.141833
2023/07/01 03:02:27.202, True, 0.994, 0.141833
2023/07/01 03:02:27.699, True, 1.011, 0.140078
2023/07/01 03:02:28.203, True, 0.995, 0.141222
2023/07/01 03:02:28.706, True, 0.996, 0.139315
2023/07/01 03:02:29.203, True, 0.673, 0.138399
2023/07/01 03:02:29.707, True, 0.995, 0.138018
2023/07/01 03:02:30.210, True, 0.995, 0.139544
2023/07/01 03:02:30.707, True, 1.011, 0.139010
2023/07/01 03:02:31.210, True, 1.326, 0.137484
2023/07/01 03:02:31.715, True, 0.995, 0.139010
2023/07/01 03:02:32.210, True, 0.674, 0.139239
2023/07/01 03:02:32.715, True, 1.326, 0.138781
2023/07/01 03:02:33.219, True, 0.995, 0.141527
2023/07/01 03:02:33.715, True, 1.011, 0.139162
2023/07/01 03:02:34.219, True, 0.995, 0.139696
2023/07/01 03:02:34.723, True, 0.995, 0.138628
2023/07/01 03:02:35.219, True, 1.011, 0.140078
2023/07/01 03:02:35.723, True, 0.995, 0.140078
2023/07/01 03:02:36.227, True, 0.994, 0.139544
2023/07/01 03:02:36.723, True, 1.011, 0.140917
2023/07/01 03:02:37.227, True, 0.995, 0.139010
2023/07/01 03:02:37.731, True, 0.995, 0.140917
2023/07/01 03:02:38.227, True, 0.674, 0.139239
2023/07/01 03:02:38.731, True, 1.327, 0.140307
2023/07/01 03:02:39.235, True, 0.663, 0.137636
2023/07/01 03:02:39.731, True, 1.011, 0.140536
2023/07/01 03:02:40.235, True, 0.995, 0.140459
2023/07/01 03:02:40.739, True, 0.995, 0.141146
2023/07/01 03:02:41.235, True, 1.011, 0.140002
2023/07/01 03:02:41.739, True, 0.995, 0.140078
2023/07/01 03:02:42.243, True, 0.995, 0.141146
2023/07/01 03:02:42.739, True, 1.011, 0.139620
2023/07/01 03:02:43.243, True, 0.996, 0.139544
2023/07/01 03:02:43.747, True, 0.993, 0.140993
2023/07/01 03:02:44.250, True, 0.995, 0.140764
2023/07/01 03:02:44.747, True, 1.011, 0.140993
2023/07/01 03:02:45.251, True, 0.995, 0.140764
2023/07/01 03:02:45.755, True, 0.995, 0.139773
2023/07/01 03:02:46.251, True, 1.348, 0.138781
2023/07/01 03:02:46.755, True, 0.996, 0.139544
2023/07/01 03:02:47.259, True, 0.994, 0.137636
2023/07/01 03:02:47.755, True, 0.674, 0.140002
2023/07/01 03:02:48.259, True, 1.326, 0.139773
2023/07/01 03:02:48.763, True, 0.995, 0.140154
2023/07/01 03:02:49.259, True, 1.011, 0.138933
2023/07/01 03:02:49.763, True, 0.995, 0.138170
2023/07/01 03:02:50.267, True, 0.995, 0.139315
2023/07/01 03:02:50.763, True, 1.011, 0.142290
2023/07/01 03:02:51.267, True, 0.995, 0.139849
2023/07/01 03:02:51.771, True, 0.995, 0.139696
2023/07/01 03:02:52.267, True, 1.348, 0.141909
2023/07/01 03:02:52.771, True, 0.663, 0.140078
2023/07/01 03:02:53.275, True, 0.995, 0.138628
2023/07/01 03:02:53.771, True, 1.010, 0.140383
2023/07/01 03:02:54.275, True, 0.996, 0.140917
2023/07/01 03:02:54.778, True, 0.995, 0.138781
2023/07/01 03:02:55.275, True, 1.011, 0.139086
2023/07/01 03:02:55.778, True, 0.995, 0.138628
2023/07/01 03:02:56.282, True, 0.663, 0.139620
2023/07/01 03:02:56.778, True, 1.011, 0.142443
2023/07/01 03:02:57.282, True, 0.994, 0.139467
2023/07/01 03:02:57.786, True, 0.995, 0.139925
2023/07/01 03:02:58.282, True, 1.012, 0.140917
2023/07/01 03:02:58.787, True, 0.994, 0.137331
2023/07/01 03:02:59.290, True, 0.996, 0.139773
2023/07/01 03:02:59.786, True, 1.010, 0.139010
2023/07/01 03:03:00.290, True, 0.995, 0.138323
2023/07/01 03:03:00.794, True, 0.996, 0.138476
2023/07/01 03:03:01.291, True, 1.009, 0.137484
2023/07/01 03:03:01.794, True, 0.995, 0.141070
2023/07/01 03:03:02.299, True, 0.996, 0.140383
2023/07/01 03:03:02.795, True, 1.012, 0.140078
2023/07/01 03:03:03.299, True, 0.993, 0.138857
2023/07/01 03:03:03.803, True, 0.664, 0.139391
2023/07/01 03:03:04.298, True, 1.011, 0.138933
2023/07/01 03:03:04.803, True, 0.993, 0.138781
2023/07/01 03:03:05.307, True, 0.995, 0.139467
2023/07/01 03:03:05.803, True, 1.010, 0.139925
2023/07/01 03:03:06.307, True, 0.995, 0.140917
2023/07/01 03:03:06.803, True, 1.011, 0.142214
2023/07/01 03:03:07.307, True, 0.995, 0.138933
2023/07/01 03:03:07.811, True, 0.995, 0.142367
2023/07/01 03:03:08.315, True, 0.995, 0.138628
2023/07/01 03:03:08.811, True, 1.011, 0.138857
2023/07/01 03:03:09.315, True, 0.997, 0.138628
2023/07/01 03:03:09.819, True, 0.994, 0.139162
2023/07/01 03:03:10.315, True, 1.010, 0.140764
2023/07/01 03:03:10.819, True, 1.327, 0.140078
2023/07/01 03:03:11.323, True, 0.664, 0.137942
2023/07/01 03:03:11.819, True, 1.011, 0.140154
2023/07/01 03:03:12.323, True, 0.994, 0.139544
2023/07/01 03:03:12.819, True, 1.012, 0.140764
2023/07/01 03:03:13.322, True, 0.995, 0.139239
2023/07/01 03:03:13.827, True, 0.994, 0.138628
2023/07/01 03:03:14.331, True, 0.995, 0.137942
2023/07/01 03:03:14.827, True, 1.011, 0.138094
2023/07/01 03:03:15.331, True, 1.326, 0.139315
2023/07/01 03:03:15.835, True, 0.997, 0.139696
2023/07/01 03:03:16.330, True, 1.009, 0.138705
2023/07/01 03:03:16.835, True, 0.995, 0.140536
2023/07/01 03:03:17.339, True, 0.995, 0.138170
2023/07/01 03:03:17.835, True, 1.011, 0.139467
2023/07/01 03:03:18.339, True, 0.995, 0.138781
2023/07/01 03:03:18.842, True, 0.995, 0.137331
2023/07/01 03:03:19.339, True, 1.011, 0.140307
2023/07/01 03:03:19.843, True, 0.995, 0.137865
2023/07/01 03:03:20.347, True, 0.994, 0.139162
2023/07/01 03:03:20.843, True, 1.011, 0.137484
2023/07/01 03:03:21.347, True, 1.327, 0.139391
2023/07/01 03:03:21.843, True, 1.011, 0.137636
2023/07/01 03:03:22.347, True, 0.995, 0.140154
2023/07/01 03:03:22.851, True, 0.995, 0.138933
2023/07/01 03:03:23.355, True, 0.996, 0.137636
2023/07/01 03:03:23.851, True, 1.010, 0.138399
2023/07/01 03:03:24.355, True, 0.663, 0.135119
2023/07/01 03:03:24.851, True, 1.348, 0.140230
2023/07/01 03:03:25.355, True, 0.995, 0.139086
2023/07/01 03:03:25.858, True, 0.995, 0.138476
2023/07/01 03:03:26.355, True, 1.011, 0.138705
2023/07/01 03:03:26.859, True, 0.995, 0.139773
2023/07/01 03:03:27.363, True, 0.995, 0.138705
2023/07/01 03:03:27.859, True, 1.011, 0.139849
2023/07/01 03:03:28.363, True, 0.995, 0.137102
2023/07/01 03:03:28.859, True, 0.674, 0.139315
2023/07/01 03:03:29.363, True, 0.995, 0.138170
2023/07/01 03:03:29.867, True, 0.995, 0.137560
2023/07/01 03:03:30.363, True, 1.011, 0.139620
2023/07/01 03:03:30.867, True, 0.995, 0.137331
2023/07/01 03:03:31.371, True, 0.995, 0.139010
2023/07/01 03:03:31.867, True, 1.011, 0.138781
2023/07/01 03:03:32.371, True, 0.994, 0.139239
2023/07/01 03:03:32.867, True, 1.011, 0.138170
2023/07/01 03:03:33.371, True, 0.995, 0.136263
2023/07/01 03:03:33.875, True, 0.995, 0.138247
2023/07/01 03:03:34.371, True, 1.348, 0.138705
2023/07/01 03:03:34.875, True, 0.995, 0.136263
2023/07/01 03:03:35.379, True, 0.995, 0.138399
2023/07/01 03:03:35.875, True, 1.011, 0.139391
2023/07/01 03:03:36.379, True, 0.996, 0.138933
2023/07/01 03:03:36.883, True, 0.993, 0.139086
2023/07/01 03:03:37.379, True, 1.011, 0.139162
2023/07/01 03:03:37.883, True, 0.995, 0.138247
2023/07/01 03:03:38.386, True, 0.995, 0.137636
2023/07/01 03:03:38.883, True, 1.011, 0.138323
2023/07/01 03:03:39.387, True, 0.995, 0.139773
2023/07/01 03:03:39.891, True, 0.995, 0.136339
2023/07/01 03:03:40.387, True, 1.011, 0.138857
2023/07/01 03:03:40.891, True, 0.995, 0.139467
2023/07/01 03:03:41.395, True, 0.995, 0.138705
2023/07/01 03:03:41.891, True, 1.013, 0.138781
2023/07/01 03:03:42.395, True, 0.993, 0.139086
2023/07/01 03:03:42.899, True, 0.995, 0.139086
2023/07/01 03:03:43.403, True, 0.995, 0.140459
2023/07/01 03:03:43.899, True, 1.011, 0.140230
2023/07/01 03:03:44.403, True, 0.995, 0.138247
2023/07/01 03:03:44.907, True, 0.997, 0.137789
2023/07/01 03:03:45.403, True, 1.010, 0.137713
2023/07/01 03:03:45.907, True, 0.994, 0.137484
2023/07/01 03:03:46.411, True, 0.995, 0.140917
2023/07/01 03:03:46.907, True, 1.348, 0.139010
2023/07/01 03:03:47.411, True, 0.663, 0.140917
2023/07/01 03:03:47.907, True, 1.011, 0.137942
2023/07/01 03:03:48.411, True, 0.995, 0.138705
2023/07/01 03:03:48.915, True, 0.995, 0.138247
2023/07/01 03:03:49.410, True, 1.011, 0.138857
2023/07/01 03:03:49.914, True, 0.997, 0.139086
2023/07/01 03:03:50.419, True, 0.993, 0.138705
2023/07/01 03:03:50.915, True, 1.011, 0.137865
2023/07/01 03:03:51.419, True, 0.995, 0.136645
2023/07/01 03:03:51.923, True, 0.995, 0.137026
2023/07/01 03:03:52.419, True, 1.011, 0.138323
2023/07/01 03:03:52.923, True, 0.995, 0.138476
2023/07/01 03:03:53.427, True, 0.995, 0.137942
2023/07/01 03:03:53.923, True, 1.011, 0.136797
2023/07/01 03:03:54.427, True, 0.997, 0.138857
2023/07/01 03:03:54.923, True, 1.009, 0.139086
2023/07/01 03:03:55.427, True, 0.995, 0.138323
2023/07/01 03:03:55.930, True, 0.995, 0.140230
2023/07/01 03:03:56.435, True, 0.995, 0.138399
2023/07/01 03:03:56.931, True, 1.348, 0.138857
2023/07/01 03:03:57.435, True, 0.995, 0.138399
2023/07/01 03:03:57.939, True, 0.995, 0.140383
2023/07/01 03:03:58.435, True, 1.011, 0.137560
2023/07/01 03:03:58.939, True, 0.995, 0.138781
2023/07/01 03:03:59.443, True, 0.996, 0.139315
2023/07/01 03:03:59.939, True, 1.009, 0.139162
2023/07/01 03:04:00.442, True, 0.995, 0.137484
2023/07/01 03:04:00.947, True, 0.995, 0.138476
2023/07/01 03:04:01.443, True, 1.011, 0.139467
2023/07/01 03:04:01.947, True, 0.995, 0.137484
2023/07/01 03:04:02.450, True, 0.995, 0.137102
2023/07/01 03:04:02.955, True, 0.995, 0.138247
2023/07/01 03:04:03.450, True, 1.348, 0.139239
2023/07/01 03:04:03.955, True, 0.995, 0.138933
2023/07/01 03:04:04.459, True, 0.995, 0.138781
2023/07/01 03:04:04.955, True, 1.011, 0.138399
2023/07/01 03:04:05.459, True, 0.995, 0.138628
2023/07/01 03:04:05.963, True, 0.995, 0.138476
2023/07/01 03:04:06.459, True, 1.011, 0.137560
2023/07/01 03:04:06.963, True, 0.995, 0.138552
2023/07/01 03:04:07.467, True, 0.995, 0.136721
2023/07/01 03:04:07.962, True, 0.674, 0.138476
2023/07/01 03:04:08.467, True, 0.995, 0.138628
2023/07/01 03:04:08.971, True, 1.329, 0.136568
2023/07/01 03:04:09.467, True, 1.009, 0.138094
2023/07/01 03:04:09.971, True, 0.996, 0.135805
2023/07/01 03:04:10.475, True, 0.994, 0.140002